KJ4AJP Weather Reports


time (UTC)temp
C
wind
direction
speed
KPH
gust
KPH
rain 1hr
cm
rain 24hr
cm
rain mn
cm
humidity
%
barometer
mb
20260902141438 31 67 0.0 1.6 0.00 0.00 0.00 64 1018.8
20260902140937 30 67 0.0 1.6 0.00 0.00 0.00 63 1018.6
20260902140433 30 89 3.2 4.8 0.00 0.00 0.00 64 1018.8
20260902135932 30 31 3.2 3.2 0.00 0.00 0.00 64 1018.7
20260902135429 30 47 0.0 1.6 0.00 0.00 0.00 65 1018.8
20260902134927 30 48 0.0 1.6 0.00 0.00 0.00 67 1018.7
20260902134424 29 70 0.0 0.0 0.00 0.00 0.00 69 1018.7
20260902133919 29 349 0.0 1.6 0.00 0.00 0.00 67 1018.7
20260902133418 28 87 0.0 1.6 0.00 0.00 0.00 72 1018.9
20260902132913 28 80 1.6 1.6 0.00 0.00 0.00 72 1018.8
20260902132408 27 119 1.6 1.6 0.00 0.00 0.00 74 1018.8
20260902131903 27 58 0.0 0.0 0.00 0.00 0.00 76 1018.7
20260902131400 27 62 0.0 0.0 0.00 0.00 0.00 77 1018.8
20260902130859 28 54 0.0 0.0 0.00 0.00 0.00 74 1018.9
20260902130356 28 67 0.0 0.0 0.00 0.00 0.00 74 1018.7
20260902125850 27 66 0.0 0.0 0.00 0.00 0.00 77 1018.5
20260902125346 26 53 0.0 0.0 0.00 0.00 0.00 79 1018.6
20260902124842 26 60 0.0 0.0 0.00 0.00 0.00 82 1018.6
20260902124338 25 59 0.0 0.0 0.00 0.00 0.00 85 1018.5
20260902123833 25 60 0.0 0.0 0.00 0.00 0.00 86 1018.6
20260902123329 24 43 0.0 0.0 0.00 0.00 0.00 89 1018.5
20260902122827 23 57 0.0 0.0 0.00 0.00 0.00 93 1018.4
20260902122324 23 58 0.0 0.0 0.00 0.00 0.00 94 1018.5
20260902121823 22 58 0.0 0.0 0.00 0.00 0.00 95 1018.5
20260902121319 22 58 0.0 0.0 0.00 0.00 0.00 95 1018.2
20260902120814 22 58 0.0 0.0 0.00 0.00 0.00 95 1018.3
20260902120311 22 58 0.0 0.0 0.00 0.00 0.00 96 1018.1
20260902115810 22 58 0.0 0.0 0.00 0.00 0.00 96 1018.2
20260902115309 22 58 0.0 0.0 0.00 0.00 0.00 96 1018.1
20260902114803 22 58 0.0 0.0 0.00 0.00 0.00 96 1018.0
20260902114300 22 58 0.0 0.0 0.00 0.00 0.00 96 1018.0
20260902113754 22 58 0.0 0.0 0.00 0.00 0.00 96 1018.1
20260902113249 22 58 0.0 0.0 0.00 0.00 0.00 96 1018.1
20260902112748 22 58 0.0 0.0 0.00 0.00 0.00 96 1018.0
20260902112246 22 58 0.0 0.0 0.00 0.00 0.00 96 1018.0
20260902111746 22 58 0.0 0.0 0.00 0.00 0.00 96 1017.7
20260902111242 22 58 0.0 0.0 0.00 0.00 0.00 96 1017.8
20260902110738 22 58 0.0 0.0 0.00 0.00 0.00 96 1017.9
20260902110234 22 58 0.0 0.0 0.00 0.00 0.00 96 1017.8
20260902105733 22 58 0.0 0.0 0.00 0.00 0.00 96 1017.9
20260902105229 22 58 0.0 0.0 0.00 0.00 0.00 96 1017.7
20260902104724 22 58 0.0 0.0 0.00 0.00 0.00 96 1017.6
20260902104220 22 58 0.0 0.0 0.00 0.00 0.00 96 1017.6
20260902103719 22 58 0.0 0.0 0.00 0.00 0.00 96 1017.5
20260902103214 22 58 0.0 0.0 0.00 0.00 0.00 96 1017.4
20260902102709 22 58 0.0 0.0 0.00 0.00 0.00 95 1017.5
20260902102207 22 58 0.0 0.0 0.00 0.00 0.00 95 1017.4
20260902101707 22 58 0.0 0.0 0.00 0.00 0.00 95 1017.4
20260902101202 22 58 0.0 0.0 0.00 0.00 0.00 95 1017.3
20260902100701 22 58 0.0 0.0 0.00 0.00 0.00 95 1017.3
20260902100156 22 58 0.0 0.0 0.00 0.00 0.00 94 1017.4
20260902095655 22 58 0.0 0.0 0.00 0.00 0.00 94 1017.2
20260902095149 22 58 0.0 0.0 0.00 0.00 0.00 94 1017.2
20260902094645 22 58 0.0 0.0 0.00 0.00 0.00 93 1017.1
20260902094141 22 58 0.0 0.0 0.00 0.00 0.00 93 1017.2
20260902093640 22 58 0.0 0.0 0.00 0.00 0.00 92 1016.9
20260902093135 22 58 0.0 0.0 0.00 0.00 0.00 92 1017.1
20260902092630 23 58 0.0 0.0 0.00 0.00 0.00 92 1017.1
20260902092125 23 58 0.0 0.0 0.00 0.00 0.00 91 1017.1
20260902091620 23 58 0.0 0.0 0.00 0.00 0.00 90 1016.9
20260902091116 23 58 0.0 0.0 0.00 0.00 0.00 91 1016.9
20260902090612 23 58 0.0 0.0 0.00 0.00 0.00 91 1017.0
20260902090112 23 58 0.0 0.0 0.00 0.00 0.00 91 1017.1
20260902085612 23 58 0.0 0.0 0.00 0.00 0.00 91 1017.2
20260902085107 23 58 0.0 0.0 0.00 0.00 0.00 90 1016.9
20260902084603 23 58 0.0 0.0 0.00 0.00 0.00 89 1016.9
20260902084059 23 58 0.0 0.0 0.00 0.00 0.00 88 1016.7
20260902083554 23 58 0.0 0.0 0.00 0.00 0.00 88 1016.8
20260902083053 24 58 0.0 0.0 0.00 0.00 0.00 88 1016.9
20260902082549 24 58 0.0 0.0 0.00 0.00 0.00 88 1016.8
20260902082045 24 58 0.0 0.0 0.00 0.00 0.00 88 1016.8
20260902081542 24 58 0.0 0.0 0.00 0.00 0.00 88 1016.9
20260902081041 24 58 0.0 0.0 0.00 0.00 0.00 88 1016.8
20260902080537 24 58 0.0 0.0 0.00 0.00 0.00 88 1016.8
20260902080033 24 58 0.0 0.0 0.00 0.00 0.00 88 1016.9
20260902075532 24 58 0.0 0.0 0.00 0.00 0.00 88 1016.9
20260902075029 24 58 0.0 0.0 0.00 0.00 0.00 88 1016.9
20260902074525 24 58 0.0 0.0 0.00 0.00 0.00 88 1016.7
20260902074025 24 58 0.0 0.0 0.00 0.00 0.00 87 1016.8
20260902073520 24 58 0.0 0.0 0.00 0.00 0.00 87 1017.0
20260902073018 24 58 0.0 0.0 0.00 0.00 0.00 87 1016.7
20260902072518 24 58 0.0 0.0 0.00 0.00 0.00 87 1017.0
20260902072015 24 58 0.0 0.0 0.00 0.00 0.00 87 1017.0
20260902071514 25 57 0.0 0.0 0.00 0.00 0.00 86 1017.0
20260902071011 25 57 0.0 0.0 0.00 0.00 0.00 86 1017.0
20260902070506 25 57 0.0 0.0 0.00 0.00 0.00 86 1017.0
20260902070007 25 57 0.0 0.0 0.00 0.00 0.00 87 1016.8
20260902065459 25 57 0.0 0.0 0.00 0.00 0.00 86 1017.2
20260902064954 25 57 0.0 0.0 0.00 0.00 0.00 86 1017.1
20260902064450 25 57 0.0 0.0 0.00 0.00 0.00 86 1017.1
20260902063946 25 57 0.0 0.0 0.00 0.00 0.00 86 1017.1
20260902063445 25 57 0.0 0.0 0.00 0.00 0.00 86 1017.0
20260902062941 25 57 0.0 0.0 0.00 0.00 0.00 86 1016.9
20260902062439 25 57 0.0 0.0 0.00 0.00 0.00 85 1016.9
20260902061935 25 57 0.0 0.0 0.00 0.00 0.00 86 1016.9
20260902061430 25 57 0.0 0.0 0.00 0.00 0.00 86 1016.8
20260902060926 25 57 0.0 0.0 0.00 0.00 0.00 85 1016.8
20260902060422 25 57 0.0 0.0 0.00 0.00 0.00 85 1016.8
20260902055917 25 57 0.0 0.0 0.00 0.00 0.00 84 1016.7
20260902055414 25 57 0.0 0.0 0.00 0.00 0.00 83 1017.0
20260902054909 25 57 0.0 0.0 0.00 0.00 0.00 83 1016.7
20260902054403 25 57 0.0 0.0 0.00 0.00 0.00 83 1016.6
20260902053859 25 57 0.0 0.0 0.00 0.00 0.00 82 1016.9
20260902053354 26 57 0.0 0.0 0.00 0.00 0.00 82 1016.6
20260902052853 26 57 0.0 0.0 0.00 0.00 0.00 82 1016.8
20260902052348 26 57 0.0 0.0 0.00 0.00 0.00 81 1016.8
20260902051843 26 57 0.0 0.0 0.00 0.00 0.00 80 1016.7
20260902051337 26 57 0.0 0.0 0.00 0.00 0.00 80 1016.8
20260902050832 26 57 0.0 0.0 0.00 0.00 0.00 79 1016.8
20260902050331 26 57 0.0 0.0 0.00 0.00 0.00 78 1016.7
20260902045827 26 56 0.0 0.0 0.00 0.00 0.00 78 1016.6
20260902045322 26 57 0.0 0.0 0.00 0.00 0.00 78 1016.6
20260902044818 26 61 0.0 0.0 0.00 0.00 0.00 78 1016.5
20260902044314 26 65 0.0 0.0 0.00 0.00 0.00 79 1016.6
20260902043808 26 65 0.0 0.0 0.00 0.00 0.00 79 1016.6
20260902043304 26 61 0.0 0.0 0.00 0.00 0.00 78 1016.6
20260902042803 26 65 0.0 0.0 0.00 0.00 0.00 79 1016.8
20260902042258 26 66 0.0 0.0 0.00 0.00 0.00 79 1016.7
20260902041753 26 66 0.0 0.0 0.00 0.00 0.00 79 1016.7
20260902041253 26 66 0.0 0.0 0.00 0.00 0.00 78 1016.4
20260902040752 26 66 0.0 0.0 0.00 0.00 0.00 78 1016.7
20260902040248 26 65 0.0 0.0 0.00 0.00 0.00 79 1016.7
20260902035746 26 65 0.0 0.0 0.00 0.00 0.00 78 1016.6
20260902035242 26 65 0.0 0.0 0.00 0.00 0.00 78 1016.7
20260902034741 26 65 0.0 0.0 0.00 0.00 0.00 77 1016.7
20260902034236 26 65 0.0 0.0 0.00 0.00 0.00 77 1016.8
20260902033734 26 65 0.0 0.0 0.00 0.00 0.00 77 1016.9
20260902033229 26 67 0.0 0.0 0.00 0.00 0.00 78 1016.8
20260902032728 26 67 0.0 0.0 0.00 0.00 0.00 78 1016.6
20260902032223 26 67 0.0 0.0 0.00 0.00 0.00 78 1016.9
20260902031722 26 67 0.0 0.0 0.00 0.00 0.00 78 1016.9
20260902031218 26 67 0.0 0.0 0.00 0.00 0.00 78 1016.9
20260902030714 27 67 0.0 0.0 0.00 0.00 0.00 78 1017.0
20260902030213 27 67 0.0 0.0 0.00 0.00 0.00 78 1016.9
20260902025713 27 67 0.0 0.0 0.00 0.00 0.00 78 1016.9
20260902025209 27 67 0.0 0.0 0.00 0.00 0.00 77 1016.6
20260902024709 27 67 0.0 0.0 0.00 0.00 0.00 77 1016.8
20260902024204 27 67 0.0 0.0 0.00 0.00 0.00 77 1016.8
20260902023659 27 67 0.0 0.0 0.00 0.00 0.00 76 1016.8
20260902023154 27 53 0.0 0.0 0.00 0.00 0.00 76 1016.7
20260902022654 27 60 0.0 0.0 0.00 0.00 0.00 76 1016.7
20260902022150 27 60 0.0 0.0 0.00 0.00 0.00 76 1016.7
20260902021646 28 57 0.0 0.0 0.00 0.00 0.00 75 1016.7
20260902021146 28 58 0.0 0.0 0.00 0.00 0.00 75 1016.7
20260902020642 28 58 0.0 0.0 0.00 0.00 0.00 75 1016.7
20260902020138 28 58 0.0 0.0 0.00 0.00 0.00 75 1016.6
20260902015633 28 58 0.0 0.0 0.00 0.00 0.00 75 1016.7
20260902015130 28 58 0.0 0.0 0.00 0.00 0.00 75 1016.7
20260902014625 28 58 0.0 0.0 0.00 0.00 0.00 74 1016.5
20260902014120 28 58 0.0 0.0 0.00 0.00 0.00 73 1016.7
20260902013619 28 58 0.0 0.0 0.00 0.00 0.00 73 1016.3
20260902013115 28 58 0.0 0.0 0.00 0.00 0.00 73 1016.6
20260902012610 28 58 0.0 0.0 0.00 0.00 0.00 72 1016.5
20260902012106 28 58 0.0 0.0 0.00 0.00 0.00 72 1016.5
20260902011601 28 65 0.0 0.0 0.00 0.00 0.00 72 1016.4
20260902011100 28 64 0.0 0.0 0.00 0.00 0.00 72 1016.3
20260902010555 28 67 0.0 0.0 0.00 0.00 0.00 72 1016.1
20260902010051 28 60 0.0 0.0 0.00 0.00 0.00 71 1016.0
20260902005548 29 60 0.0 0.0 0.00 0.00 0.00 71 1016.1
20260902005045 28 60 0.0 0.0 0.00 0.00 0.00 71 1016.0
20260902004544 29 59 0.0 0.0 0.00 0.00 0.00 71 1015.9
20260902004039 29 59 0.0 0.0 0.00 0.00 0.00 70 1016.1
20260902003535 29 58 0.0 0.0 0.00 0.00 0.00 70 1016.1
20260902003030 29 58 0.0 0.0 0.00 0.00 0.00 69 1016.1
20260902002526 30 58 0.0 0.0 0.00 0.00 0.00 69 1016.1
20260902002020 30 58 0.0 0.0 0.00 0.00 0.00 69 1015.9
20260902001514 30 55 0.0 0.0 0.00 0.00 0.00 68 1015.9
20260902001010 30 55 0.0 0.0 0.00 0.00 0.00 66 1016.0
20260902000505 30 55 0.0 0.0 0.00 0.00 0.00 65 1016.3
20260901235959 31 55 0.0 0.0 0.00 0.00 0.00 64 1016.3
20260901235455 31 55 0.0 0.0 0.00 0.00 0.00 63 1016.4
20260901234950 31 55 0.0 0.0 0.00 0.00 0.00 62 1016.0
20260901234449 32 55 0.0 0.0 0.00 0.00 0.00 61 1016.1
20260901233944 32 55 0.0 0.0 0.00 0.00 0.00 60 1016.5
20260901233444 32 55 0.0 0.0 0.00 0.00 0.00 58 1016.4
20260901232941 32 55 0.0 0.0 0.00 0.00 0.00 59 1016.4
20260901232436 33 62 0.0 0.0 0.00 0.00 0.00 57 1016.1
20260901231931 33 55 0.0 0.0 0.00 0.00 0.00 56 1016.3
20260901231427 33 56 0.0 0.0 0.00 0.00 0.00 54 1016.4
20260901230924 34 55 0.0 0.0 0.00 0.00 0.00 53 1016.0
20260901230423 34 53 0.0 0.0 0.00 0.00 0.00 53 1016.1
20260901225919 35 69 1.6 1.6 0.00 0.00 0.00 52 1016.1
20260901225418 35 53 0.0 1.6 0.00 0.00 0.00 52 1016.0
20260901224913 35 44 1.6 3.2 0.00 0.00 0.00 50 1016.3
20260901224410 35 50 0.0 0.0 0.00 0.00 0.00 50 1016.1
20260901223906 35 45 1.6 1.6 0.00 0.00 0.00 48 1016.3
20260901223401 35 51 0.0 1.6 0.00 0.00 0.00 51 1016.1
20260901222856 35 51 0.0 0.0 0.00 0.00 0.00 50 1016.3
20260901222353 36 47 1.6 1.6 0.00 0.00 0.00 48 1015.9
20260901221848 36 46 0.0 0.0 0.00 0.00 0.00 48 1016.3
20260901221344 36 54 0.0 0.0 0.00 0.00 0.00 53 1016.1
20260901220843 36 54 0.0 0.0 0.00 0.00 0.00 52 1016.0
20260901220342 35 46 0.0 0.0 0.00 0.00 0.00 54 1016.3
20260901215841 35 46 0.0 0.0 0.00 0.00 0.00 53 1016.1
20260901215341 34 44 0.0 1.6 0.00 0.00 0.00 53 1016.3
20260901214839 34 60 0.0 0.0 0.00 0.00 0.00 57 1016.5
20260901214339 35 60 0.0 1.6 0.00 0.00 0.00 55 1016.3
20260901213833 35 57 0.0 0.0 0.00 0.00 0.00 54 1016.4
20260901213333 35 64 0.0 1.6 0.00 0.00 0.00 57 1016.3
20260901212828 35 49 0.0 1.6 0.00 0.00 0.00 53 1016.5
20260901212323 34 59 0.0 0.0 0.00 0.00 0.00 55 1016.3
20260901211819 33 55 0.0 0.0 0.00 0.00 0.00 57 1016.4
20260901211315 33 65 0.0 1.6 0.00 0.00 0.00 58 1016.4
20260901210810 33 60 1.6 1.6 0.00 0.00 0.00 56 1016.4
20260901210306 33 60 0.0 0.0 0.00 0.00 0.00 56 1016.4
20260901205802 34 61 0.0 0.0 0.00 0.00 0.00 56 1016.5
20260901205306 35 93 1.6 3.2 0.00 0.00 0.00 51 1016.6
20260901204757 35 47 0.0 0.0 0.00 0.00 0.00 50 1016.7
20260901204253 35 51 0.0 0.0 0.00 0.00 0.00 52 1016.7
20260901203754 36 54 0.0 1.6 0.00 0.00 0.00 49 1016.7
20260901203254 36 56 0.0 0.0 0.00 0.00 0.00 49 1016.8
20260901202754 35 68 0.0 0.0 0.00 0.00 0.00 51 1016.7
20260901202249 35 76 1.6 1.6 0.00 0.00 0.00 52 1016.9
20260901201745 35 68 0.0 0.0 0.00 0.00 0.00 57 1016.7
20260901201244 35 65 0.0 0.0 0.00 0.00 0.00 54 1016.8
20260901200744 35 57 0.0 0.0 0.00 0.00 0.00 54 1016.9
20260901200239 35 60 1.6 1.6 0.00 0.00 0.00 48 1017.0
20260901195737 36 60 0.0 0.0 0.00 0.00 0.00 47 1016.9
20260901195231 36 41 0.0 0.0 0.00 0.00 0.00 45 1016.9
20260901194727 36 55 1.6 1.6 0.00 0.00 0.00 46 1017.0
20260901194222 35 47 0.0 0.0 0.00 0.00 0.00 45 1017.0
20260901193718 35 59 0.0 0.0 0.00 0.00 0.00 54 1017.0
20260901193217 35 56 0.0 0.0 0.00 0.00 0.00 48 1017.1
20260901192712 36 9 1.6 3.2 0.00 0.00 0.00 46 1017.1
20260901192207 36 74 1.6 1.6 0.00 0.00 0.00 46 1017.0
20260901191703 36 74 3.2 4.8 0.00 0.00 0.00 45 1017.3
20260901191159 35 59 0.0 1.6 0.00 0.00 0.00 48 1017.5
20260901190655 35 78 1.6 1.6 0.00 0.00 0.00 52 1017.6
20260901190154 36 25 1.6 3.2 0.00 0.00 0.00 47 1017.5
20260901185653 36 74 1.6 3.2 0.00 0.00 0.00 49 1017.3
20260901185151 37 279 6.4 6.4 0.00 0.00 0.00 46 1017.6
20260901184647 36 62 0.0 1.6 0.00 0.00 0.00 47 1017.5
20260901184142 37 8 1.6 1.6 0.00 0.00 0.00 47 1017.6
20260901183637 36 80 1.6 1.6 0.00 0.00 0.00 47 1017.7
20260901183132 36 359 3.2 3.2 0.00 0.00 0.00 45 1017.8
20260901182629 36 184 3.2 4.8 0.00 0.00 0.00 48 1017.8
20260901182127 36 111 1.6 3.2 0.00 0.00 0.00 48 1017.8
20260901181628 36 331 3.2 3.2 0.00 0.00 0.00 48 1017.8
20260901181122 36 63 0.0 0.0 0.00 0.00 0.00 47 1018.0
20260901180621 36 35 3.2 3.2 0.00 0.00 0.00 46 1017.9
20260901180116 36 357 3.2 3.2 0.00 0.00 0.00 50 1018.2
20260901175614 36 46 1.6 3.2 0.00 0.00 0.00 47 1018.1
20260901175109 36 58 0.0 1.6 0.00 0.00 0.00 48 1018.2
20260901174605 35 24 3.2 3.2 0.00 0.00 0.00 49 1018.3
20260901174102 35 42 1.6 3.2 0.00 0.00 0.00 50 1018.2
20260901173601 35 33 3.2 4.8 0.00 0.00 0.00 49 1018.3
20260901173057 35 151 3.2 4.8 0.00 0.00 0.00 49 1018.5
20260901172552 36 293 6.4 9.7 0.00 0.00 0.00 49 1018.5
20260901172050 36 3 3.2 3.2 0.00 0.00 0.00 48 1018.4
20260901171544 35 56 1.6 3.2 0.00 0.00 0.00 49 1018.6
20260901171043 35 48 0.0 1.6 0.00 0.00 0.00 53 1018.8
20260901170543 35 89 3.2 4.8 0.00 0.00 0.00 50 1018.8
20260901170038 35 48 0.0 1.6 0.00 0.00 0.00 51 1018.9
20260901165538 34 6 1.6 3.2 0.00 0.00 0.00 54 1019.0
20260901165033 35 61 0.0 0.0 0.00 0.00 0.00 53 1018.8
20260901164529 36 69 3.2 4.8 0.00 0.00 0.00 47 1019.0
20260901164024 36 60 0.0 1.6 0.00 0.00 0.00 49 1018.8
20260901163519 35 184 4.8 4.8 0.00 0.00 0.00 53 1019.0
20260901163018 35 70 1.6 1.6 0.00 0.00 0.00 52 1019.0
20260901162514 34 65 0.0 0.0 0.00 0.00 0.00 54 1019.0
20260901162013 34 5 1.6 3.2 0.00 0.00 0.00 53 1019.1
20260901161507 35 153 1.6 3.2 0.00 0.00 0.00 55 1019.1
20260901161006 34 86 1.6 3.2 0.00 0.00 0.00 56 1019.2
20260901160502 35 345 1.6 3.2 0.00 0.00 0.00 55 1019.1
20260901160002 35 33 1.6 3.2 0.00 0.00 0.00 54 1019.1
20260901155501 35 48 0.0 0.0 0.00 0.00 0.00 58 1019.2
20260901154958 35 24 1.6 3.2 0.00 0.00 0.00 55 1019.1
20260901154457 35 70 1.6 1.6 0.00 0.00 0.00 58 1019.3
20260901153952 34 28 1.6 3.2 0.00 0.00 0.00 56 1019.1
20260901153447 34 347 3.2 4.8 0.00 0.00 0.00 55 1019.2
20260901152947 33 70 0.0 0.0 0.00 0.00 0.00 55 1019.1
20260901152446 33 43 0.0 1.6 0.00 0.00 0.00 62 1019.4
20260901151946 32 51 0.0 0.0 0.00 0.00 0.00 61 1019.2
20260901151441 33 274 3.2 4.8 0.00 0.00 0.00 59 1019.2
20260901150941 32 23 1.6 3.2 0.00 0.00 0.00 58 1019.3
20260901150439 33 28 3.2 3.2 0.00 0.00 0.00 58 1019.2
20260901145937 33 66 3.2 3.2 0.00 0.00 0.00 58 1019.3
20260901145436 32 38 1.6 1.6 0.00 0.00 0.00 62 1019.2
20260901144931 32 46 1.6 1.6 0.00 0.00 0.00 64 1019.2
20260901144426 32 206 3.2 4.8 0.00 0.00 0.00 62 1019.5
20260901143922 32 343 3.2 3.2 0.00 0.00 0.00 61 1019.3
20260901143418 31 83 1.6 3.2 0.00 0.00 0.00 64 1019.3
20260901142915 31 31 3.2 3.2 0.00 0.00 0.00 65 1019.3
20260901142414 31 266 3.2 3.2 0.00 0.00 0.00 64 1019.4
20260901141909 31 100 1.6 3.2 0.00 0.00 0.00 65 1019.3